STARLINK-1646, 46351

Orbit data source: Space-Track

STARLINK-1646, 46351 is a payload satellite owned by SpaceX/Seattle (US) in LEO that was launched on Thu, 03 Sep 2020 UTC via an FALCON 9 launch vehicle from the Air Force Eastern Test Range (AFETR). Payload-class satellites include a variety of spacecraft equipped with specific instruments for various scientific and technological missions. These include communications satellites like Starlink; space stations such as the ISS; scientific satellites like the Hubble; Earth observation satellites from companies like Planet Labs, Umbra, and HawkEye 360; GPS; miniature CubeSats for education and research; and military/defense satellites.

Loading next visibility...
Identifier
46351, 2020-062AC
Orbit
LEO
Country
Flag of USUS
Related business
Manufacturer
SpaceX/Seattle
Mission
Operational Commercial Communications
Bus & Motor
STARLINK, Unknown motor
Mass
260 kg wet, ~248 kg dry
Launch date (UTC)
2020-09-03 (5 years ago)
Launch vehicle
FALCON 9
Launch site
Air Force Eastern Test Range (AFETR)
Object type
Payload
Rocket body
Debris
Shape & HBR
Box + 1 Pan, 10.1 m
Radar Cross Section
13.562 m², Large (>1 m²)

Expand to show TLE details & history
Last TLE update: 19 hours ago

TLE from 19 hours ago
0 STARLINK-1646
1 46351U 20062AC  25306.44330583  .00014192  00000-0  96947-3 0  9990
2 46351  53.0525 207.8439 0001213  83.9156 276.1971 15.06410604285424
Epoch: 2025-11-02T10:38Z
TLE epoch observation values (Epoch: 2025-11-02T10:38:21.623Z)
Latitude
-0.00005°
Longitude
6.29481°
Altitude
547.967 km
Speed
7.589 km/s
True Right ascension
13h 51m 22s
True Declination
0° 00' 00"
Sunlit
Object was in daylight at epoch
Visualization orbit readout
Latitude
Unknown
Longitude
Unknown
Altitude
Unknown
Speed
Unknown
Apparent Right ascension
Unknown
Apparent Declination
Unknown
Sunlit
N/A
Visualization observer readout
Local Sidereal Time
01:35:03
Azimuth
Unknown
Elevation
Unknown
Doppler factor
Unknown
Orbital elements
Apogee altitude
548.29 km
Perigee altitude
546.61 km
Semi-major axis
6,925.587 km
Eccentricity
0.00012
Inclination
53.0525°
RAAN
207.8439°
Arg. of periapsis
83.9156°
True anomaly
276.18328°
Mean anomaly
276.1971°
Eccentric anomaly
276.19019°
Mean motion
3.76581 °/min
Orbital period
95.6 mins
BSTAR
0.00096947
Loading maneuver chart data...
Computing Atmospheric mass density...
Loading historical data...
Loading historical data...
Loading historical data...
Loading historical data...
Loading historical data...
Loading historical data...
Loading historical data...

Documentation

Showing up to 5 results
|